Location: *
(38.9555°S, 57.3572°E)
Time: 00:59:39
(UTC+00:00)

Cosmos 2082 - Pass Details

Date: 15 July 2020
Orbit: 835 x 854 km, 71.0° (Epoch: 06 August)

Event Time Altitude Azimuth Distance (km) Brightness Sun altitude
Rises 14:49:51 0° 342° (NNW) 3,390 7.3 -19.5°
Reaches altitude 10° 14:52:16 10° 342° (NNW) 2,466 6.5 -20.0°
Maximum altitude 14:57:57 83° 69° (ENE) 868 3.6 -21.0°
Enters shadow 15:01:18 26° 154° (SSE) 1,625 4.8 -21.7°
